FW8222 Weather Reports


time (UTC)temp
F
wind
direction
speed
knots
gust
knots
rain 1hr
in
rain 24hr
in
rain mn
in
humidity
%
barometer
mb
20260505140622 59 249 2.6 4.3 0.00 0.14 0.14 92 1008.9
20260505140119 59 227 4.3 6.1 0.00 0.14 0.14 91 1008.6
20260505125036 57 258 8.7 9.6 0.00 0.14 0.14 92 1008.2
20260505124532 57 244 6.1 7.0 0.00 0.14 0.14 93 1008.2
20260505124029 57 227 7.8 8.7 0.00 0.14 0.14 93 1008.0
20260505123525 57 260 10.4 12.2 0.00 0.14 0.14 93 1007.9
20260505123021 58 235 9.6 11.3 0.00 0.14 0.14 94 1008.0
20260505122519 58 232 7.8 8.7 0.00 0.14 0.14 94 1008.0
20260505122016 58 215 5.2 6.1 0.00 0.14 0.14 94 1008.0
20260505121512 58 221 6.1 7.0 0.00 0.14 0.14 94 1008.3
20260505121009 58 250 3.5 4.3 0.00 0.14 0.14 94 1008.1
20260505120506 58 238 4.3 6.1 0.00 0.14 0.14 94 1008.2
20260505120006 58 228 6.1 6.1 0.00 0.14 0.14 94 1007.9
20260505115501 58 223 4.3 4.3 0.00 0.14 0.14 95 1007.9
20260505114959 58 149 0.0 0.0 0.00 0.14 0.14 95 1008.2
20260505114455 58 230 2.6 2.6 0.00 0.14 0.14 95 1007.9
20260505113952 58 240 1.7 1.7 0.00 0.14 0.14 95 1007.2
20260505113448 58 206 2.6 2.6 0.00 0.14 0.14 95 1007.2
20260505112944 58 200 1.7 1.7 0.00 0.14 0.14 95 1007.2
20260505112441 58 246 2.6 2.6 0.00 0.14 0.14 95 1007.2
20260505111938 58 208 1.7 1.7 0.00 0.14 0.14 95 1007.7
20260505111432 58 139 1.7 1.7 0.00 0.14 0.14 95 1008.1
20260505110929 58 154 0.0 0.0 0.00 0.14 0.14 95 1007.8
20260505110426 58 198 0.9 1.7 0.00 0.14 0.14 95 1007.5
20260505101856 58 171 0.0 0.0 0.00 0.14 0.14 96 1006.8
20260505101351 58 132 1.7 1.7 0.00 0.14 0.14 95 1006.8
20260505100847 58 122 0.9 1.7 0.00 0.14 0.14 95 1006.4
20260505100344 58 183 0.9 0.9 0.00 0.14 0.14 95 1006.4
20260505095840 58 286 0.9 0.9 0.00 0.14 0.14 93 1006.4
20260505095338 58 296 0.9 1.7 0.00 0.14 0.14 92 1006.1
20260505094833 58 327 2.6 4.3 0.05 0.14 0.14 91 1006.5
20260505094331 58 2 1.7 1.7 0.05 0.14 0.14 91 1006.1
20260505093826 59 299 4.3 6.1 0.00 0.13 0.13 91 1005.9
20260505093324 59 353 6.1 7.0 0.00 0.13 0.13 91 1005.7
20260505092820 59 342 4.3 7.0 0.07 0.13 0.13 91 1006.4
20260505092319 59 352 3.5 4.3 0.07 0.13 0.13 91 1007.1
20260505091816 59 0 2.6 2.6 0.05 0.12 0.12 91 1007.1
20260505091314 59 0 0.9 1.7 0.12 0.12 0.12 91 1007.5
20260505090811 59 155 0.0 0.0 0.07 0.11 0.11 90 1007.4
20260505090310 60 133 0.9 1.7 0.12 0.10 0.10 90 1007.8
20260505085806 60 87 3.5 5.2 0.24 0.10 0.10 89 1007.9
20260505085305 60 87 6.1 7.8 0.17 0.08 0.08 89 1007.7
20260505084801 60 131 6.1 7.8 0.12 0.06 0.06 89 1007.9
20260505084301 60 116 4.3 6.1 0.12 0.05 0.05 89 1007.8
20260505083757 60 110 5.2 7.0 0.12 0.04 0.04 88 1007.5
20260505083254 60 86 6.1 7.8 0.14 0.03 0.03 88 1007.9
20260505082750 61 78 7.0 12.2 0.07 0.02 0.02 87 1007.5
20260505082247 61 75 0.0 0.9 0.00 0.01 0.01 86 1007.5
20260505081743 61 86 0.9 2.6 0.05 0.01 0.01 84 1007.6
20260505081240 62 52 8.7 11.3 0.00 0.00 0.00 82 1007.5
20260505080737 63 39 7.0 12.2 0.00 0.00 0.00 80 1007.3
20260505080233 63 49 1.7 1.7 0.00 0.00 0.00 80 1007.5
20260505075729 64 54 1.7 4.3 0.00 0.00 0.00 77 1007.4
20260505075226 64 69 2.6 2.6 0.00 0.00 0.00 75 1007.2
20260505074723 64 71 0.9 0.9 0.00 0.00 0.00 75 1007.1
20260505074220 64 3 5.2 6.1 0.00 0.00 0.00 75 1007.0
20260505073718 64 35 6.1 8.7 0.00 0.00 0.00 74 1007.2
20260505073216 64 11 2.6 2.6 0.00 0.00 0.00 74 1007.0
20260505072711 64 28 4.3 5.2 0.00 0.00 0.00 74 1007.1
20260505072208 64 26 2.6 4.3 0.00 0.00 0.00 74 1007.0
20260505071703 64 359 4.3 5.2 0.00 0.00 0.00 74 1006.8
20260505071201 64 14 3.5 5.2 0.00 0.00 0.00 74 1006.7
20260505070659 64 9 4.3 5.2 0.00 0.00 0.00 74 1006.9
20260505070154 64 7 4.3 7.0 0.00 0.00 0.00 73 1007.0
20260505065650 64 25 7.0 7.8 0.00 0.00 0.00 73 1006.9
20260505065148 64 37 2.6 5.2 0.00 0.00 0.00 74 1007.2
20260505064644 64 44 3.5 4.3 0.00 0.00 0.00 73 1007.2
20260505064142 64 32 4.3 5.2 0.00 0.00 0.00 74 1007.6
20260505063640 64 349 4.3 5.2 0.00 0.00 0.00 74 1007.4
20260505063136 64 3 4.3 7.0 0.00 0.00 0.00 74 1007.6
20260505062633 64 349 5.2 6.1 0.00 0.00 0.00 74 1007.8
20260505062129 64 14 1.7 1.7 0.00 0.00 0.00 74 1007.7
20260505061626 64 350 6.1 7.0 0.00 0.00 0.00 74 1007.8
20260505061125 64 53 4.3 5.2 0.00 0.00 0.00 74 1008.0
20260505060622 64 33 4.3 6.1 0.00 0.00 0.00 73 1007.6
20260505060119 64 42 4.3 7.0 0.00 0.00 0.00 73 1007.5
20260505055614 64 41 4.3 7.0 0.00 0.00 0.00 73 1007.7
20260505055110 64 1 4.3 7.0 0.00 0.00 0.00 73 1007.7
20260505054608 64 335 4.3 5.2 0.00 0.00 0.00 73 1007.7
20260505054106 64 16 3.5 5.2 0.00 0.00 0.00 73 1007.7
20260505053603 64 44 3.5 5.2 0.00 0.00 0.00 73 1007.8
20260505053059 64 50 5.2 7.8 0.00 0.00 0.00 73 1007.7
20260505052556 64 63 5.2 7.8 0.00 0.00 0.00 73 1007.7
20260505052054 64 359 4.3 7.0 0.00 0.00 0.00 73 1007.8
20260505051551 64 20 2.6 2.6 0.00 0.00 0.00 73 1008.0
20260505051049 64 11 5.2 6.1 0.00 0.00 0.00 73 1008.0
20260505050547 64 294 4.3 6.1 0.00 0.00 0.00 73 1007.9
20260505041514 65 351 2.6 2.6 0.00 0.00 0.00 72 1008.6
20260505041012 65 2 3.5 4.3 0.00 0.00 0.00 71 1008.9
20260505040509 65 42 2.6 2.6 0.00 0.00 0.00 71 1008.8
20260505040006 65 18 4.3 7.0 0.00 0.00 0.00 70 1008.8
20260505035502 65 8 2.6 2.6 0.00 0.00 0.00 71 1008.9
20260505034959 66 12 5.2 6.1 0.00 0.00 0.00 70 1008.9
20260505034455 66 315 4.3 6.1 0.00 0.00 0.00 70 1009.0
20260505033953 66 42 0.9 1.7 0.00 0.00 0.00 71 1008.9
20260505033449 66 12 2.6 4.3 0.00 0.00 0.00 70 1008.8
20260505032948 66 328 3.5 4.3 0.00 0.00 0.00 69 1009.0
20260505032444 66 7 3.5 4.3 0.00 0.00 0.00 69 1009.2
20260505031941 66 337 1.7 2.6 0.00 0.00 0.00 69 1009.1
20260505031438 67 328 2.6 4.3 0.00 0.00 0.00 69 1009.0
20260505030935 66 17 4.3 6.1 0.00 0.00 0.00 69 1009.1
20260505030431 67 44 2.6 2.6 0.00 0.00 0.00 69 1009.0
20260505025926 66 12 3.5 4.3 0.00 0.00 0.00 69 1009.0
20260505025424 67 20 2.6 2.6 0.00 0.00 0.00 68 1008.9
20260505024922 67 18 3.5 5.2 0.00 0.00 0.00 68 1009.0
20260505024419 67 32 4.3 5.2 0.00 0.00 0.00 67 1008.8
20260505023916 67 46 5.2 6.1 0.00 0.00 0.00 67 1008.7
20260505023413 67 16 3.5 4.3 0.00 0.00 0.00 67 1008.4
20260505022910 68 5 2.6 2.6 0.00 0.00 0.00 67 1008.6
20260505022408 68 30 2.6 2.6 0.00 0.00 0.00 66 1008.3
20260505021905 68 13 3.5 5.2 0.00 0.00 0.00 66 1008.4
20260505021401 68 12 2.6 2.6 0.00 0.00 0.00 65 1008.2
20260505020857 68 25 4.3 5.2 0.00 0.00 0.00 65 1008.2
20260505020353 68 18 4.3 4.3 0.00 0.00 0.00 64 1008.3
20260505015850 69 32 2.6 2.6 0.00 0.00 0.00 64 1008.1
20260505015347 69 26 5.2 6.1 0.00 0.00 0.00 63 1007.8
20260505014844 69 356 0.0 0.0 0.00 0.00 0.00 64 1007.8
20260505014341 69 48 0.0 0.9 0.00 0.00 0.00 64 1007.8
20260505013838 69 14 4.3 5.2 0.00 0.00 0.00 62 1007.6
20260505013335 70 48 1.7 1.7 0.00 0.00 0.00 62 1007.6
20260505012833 70 2 3.5 4.3 0.00 0.00 0.00 61 1007.6
20260505012331 70 47 4.3 5.2 0.00 0.00 0.00 61 1007.5
20260505011826 70 11 5.2 6.1 0.00 0.00 0.00 61 1007.5
20260505011324 70 27 0.0 0.0 0.00 0.00 0.00 61 1007.4
20260505010819 71 29 4.3 5.2 0.00 0.00 0.00 60 1007.3
20260505010315 71 26 1.7 2.6 0.00 0.00 0.00 60 1007.3
20260505005812 71 48 2.6 2.6 0.00 0.00 0.00 60 1007.3
20260505005309 71 57 3.5 5.2 0.00 0.00 0.00 59 1007.2
20260505004807 71 33 2.6 2.6 0.00 0.00 0.00 59 1007.3
20260505004302 71 54 0.9 1.7 0.00 0.00 0.00 60 1007.0
20260505003800 72 49 2.6 2.6 0.00 0.00 0.00 59 1007.2
20260505003257 73 35 2.6 4.3 0.00 0.00 0.00 56 1007.0
20260505002753 73 33 4.3 5.2 0.00 0.00 0.00 57 1007.0
20260505002251 73 16 7.0 8.7 0.00 0.00 0.00 55 1007.2
20260505001749 74 31 3.5 5.2 0.00 0.00 0.00 55 1007.0
20260505001246 74 39 4.3 6.1 0.00 0.00 0.00 54 1007.1
20260505000742 75 40 2.6 4.3 0.00 0.00 0.00 54 1006.9
20260505000241 75 40 4.3 6.1 0.00 0.00 0.00 54 1006.8
20260504235737 75 48 4.3 6.1 0.00 0.00 0.00 54 1007.0
20260504235233 75 26 6.1 8.7 0.00 0.00 0.00 53 1006.9
20260504234730 76 97 7.0 8.7 0.00 0.00 0.00 52 1007.0
20260504234228 76 26 9.6 11.3 0.00 0.00 0.00 51 1006.7
20260504233724 76 22 7.0 7.8 0.00 0.00 0.00 51 1007.0
20260504233219 76 9 7.8 13.0 0.00 0.00 0.00 52 1007.1
20260504232717 77 20 11.3 13.9 0.00 0.00 0.00 51 1007.1
20260504232214 77 47 4.3 6.1 0.00 0.00 0.00 51 1007.0
20260504231710 77 17 6.1 12.2 0.00 0.00 0.00 51 1006.8
20260504231207 77 70 0.9 2.6 0.00 0.00 0.00 50 1007.0
20260504230703 78 46 9.6 13.9 0.00 0.00 0.00 48 1007.1
20260504230202 78 42 9.6 12.2 0.00 0.00 0.00 48 1006.9
20260504225700 78 45 10.4 13.9 0.00 0.00 0.00 48 1007.2
20260504225155 78 22 6.1 9.6 0.00 0.00 0.00 48 1007.0
20260504224653 78 19 9.6 13.0 0.00 0.00 0.00 49 1007.0
20260504224150 78 32 6.1 11.3 0.00 0.00 0.00 49 1007.1
20260504223647 78 42 8.7 11.3 0.00 0.00 0.00 48 1007.3
20260504223142 78 5 8.7 12.2 0.00 0.00 0.00 48 1007.4
20260504222640 78 17 7.0 11.3 0.00 0.00 0.00 48 1007.1
20260504222136 78 42 2.6 4.3 0.00 0.00 0.00 50 1007.0
20260504221634 78 44 7.8 12.2 0.00 0.00 0.00 49 1007.2
20260504221131 78 36 9.6 13.0 0.00 0.00 0.00 48 1007.3
20260504220627 78 30 10.4 13.0 0.00 0.00 0.00 49 1007.2
20260504220125 77 32 8.7 15.6 0.00 0.00 0.00 50 1007.2
20260504215621 78 62 5.2 7.8 0.00 0.00 0.00 51 1007.3
20260504215119 78 77 4.3 9.6 0.00 0.00 0.00 51 1007.4
20260504214614 77 56 9.6 12.2 0.00 0.00 0.00 49 1007.3
20260504214111 78 72 0.9 2.6 0.00 0.00 0.00 51 1007.2
20260504213607 78 89 1.7 6.1 0.00 0.00 0.00 51 1007.2
20260504213104 78 60 8.7 11.3 0.00 0.00 0.00 50 1007.5
20260504212600 78 47 8.7 11.3 0.00 0.00 0.00 49 1007.5
20260504212057 79 24 4.3 6.1 0.00 0.00 0.00 52 1007.3
20260504211554 78 45 9.6 13.9 0.00 0.00 0.00 50 1007.6
20260504211051 78 29 11.3 19.1 0.00 0.00 0.00 49 1007.6
20260504210549 79 39 11.3 14.8 0.00 0.00 0.00 50 1007.4
20260504210045 78 98 3.5 6.1 0.00 0.00 0.00 52 1007.6
20260504205543 78 44 10.4 15.6 0.00 0.00 0.00 49 1007.8
20260504205041 79 72 6.1 11.3 0.00 0.00 0.00 51 1007.8
20260504204538 78 53 6.1 7.8 0.00 0.00 0.00 50 1007.9
20260504204037 78 75 1.7 5.2 0.00 0.00 0.00 52 1007.8
20260504203535 78 49 7.8 13.0 0.00 0.00 0.00 51 1007.9
20260504203032 78 51 10.4 12.2 0.00 0.00 0.00 50 1008.1
20260504202527 79 36 9.6 11.3 0.00 0.00 0.00 49 1008.2
20260504202025 78 46 6.1 8.7 0.00 0.00 0.00 52 1008.1
20260504201521 78 26 11.3 14.8 0.00 0.00 0.00 49 1008.2
20260504201019 78 68 4.3 12.2 0.00 0.00 0.00 51 1008.3
20260504200515 78 53 2.6 7.8 0.00 0.00 0.00 54 1008.2
20260504200012 78 32 12.2 14.8 0.00 0.00 0.00 50 1008.6
20260504195508 78 56 11.3 15.6 0.00 0.00 0.00 51 1008.7
20260504195005 78 88 1.7 1.7 0.00 0.00 0.00 53 1008.7
20260504194501 77 32 10.4 14.8 0.00 0.00 0.00 50 1008.3
20260504193957 78 55 7.8 8.7 0.00 0.00 0.00 52 1008.7
20260504193454 77 145 9.6 14.8 0.00 0.00 0.00 51 1008.7
20260504192953 78 38 7.8 12.2 0.00 0.00 0.00 51 1008.6
20260504192450 78 45 7.8 11.3 0.00 0.00 0.00 52 1008.7
20260504191949 78 51 12.2 20.0 0.00 0.00 0.00 49 1008.6
20260504191446 78 27 12.2 15.6 0.00 0.00 0.00 51 1008.9
20260504190941 78 24 7.8 11.3 0.00 0.00 0.00 51 1008.6
20260504190438 78 28 7.8 9.6 0.00 0.00 0.00 51 1008.8
20260504185934 78 45 12.2 17.4 0.00 0.00 0.00 50 1008.4
20260504185432 77 75 8.7 11.3 0.00 0.00 0.00 51 1008.6
20260504184927 78 36 10.4 13.0 0.00 0.00 0.00 50 1008.7
20260504184423 78 52 6.1 13.0 0.00 0.00 0.00 51 1008.7
20260504183919 78 41 6.1 7.8 0.00 0.00 0.00 52 1008.7
20260504183417 78 34 7.0 12.2 0.00 0.00 0.00 52 1008.7
20260504182915 77 74 8.7 13.0 0.00 0.00 0.00 49 1008.9
20260504182411 78 80 2.6 4.3 0.00 0.00 0.00 54 1009.1
20260504181908 78 51 2.6 5.2 0.00 0.00 0.00 55 1008.6
20260504181406 77 66 6.1 7.0 0.00 0.00 0.00 53 1008.8
20260504180904 77 56 7.0 8.7 0.00 0.00 0.00 52 1008.9
20260504180403 77 78 2.6 5.2 0.00 0.00 0.00 52 1008.9
20260504175900 77 90 5.2 13.0 0.00 0.00 0.00 52 1009.2
20260504175357 77 62 7.8 9.6 0.00 0.00 0.00 52 1009.0
20260504174855 76 45 6.1 14.8 0.00 0.00 0.00 52 1009.3
20260504174352 76 49 15.6 18.2 0.00 0.00 0.00 50 1009.4
20260504173849 76 43 9.6 11.3 0.00 0.00 0.00 52 1009.1
20260504173346 76 70 6.1 7.8 0.00 0.00 0.00 54 1009.2
20260504172843 76 48 6.1 7.8 0.00 0.00 0.00 53 1009.3
20260504172339 76 16 6.1 7.8 0.00 0.00 0.00 54 1009.2
20260504171835 76 18 9.6 12.2 0.00 0.00 0.00 52 1009.2
20260504171333 76 87 2.6 5.2 0.00 0.00 0.00 53 1009.2
20260504170830 76 52 7.8 13.9 0.00 0.00 0.00 55 1009.4
20260504170326 75 56 5.2 9.6 0.00 0.00 0.00 56 1009.2
20260504160245 73 48 7.8 8.7 0.00 0.00 0.00 55 1010.1
20260504150710 70 57 4.3 6.1 0.00 0.00 0.00 58 1010.6
20260504150207 70 66 7.8 8.7 0.00 0.00 0.00 57 1010.5